Hourly Data Report for August 11, 2001

SHERBROOKE A
QUEBEC

45°26'00.000" N
71°41'00.000" W
241.40 m
7028124
71610
YSC

Download Data

Hourly Data (August 2001)
Hourly Data Report for August 11, 2001
TIME
LST
Temp Definition
°C
Dew Point Definition
°C
Rel Hum Definition
%
Precip. Amount Definition
mm

Wind Dir Definition
10's deg

Wind Spd Definition
km/h
Visibility Definition
km
Stn Press Definition
kPa
Hmdx Definition


Wind Chill Definition


Weather Definition


00:00 11.9 9.4 85     0 15.0 98.67      
01:00 10.4 8.9 90   22 4 15.0 98.71      
02:00 9.1 8.3 95   12 4 15.0 98.77      
03:00 8.8 8.4 97     0 15.0 98.82      
04:00 7.6 6.9 95     0 15.0 98.88      
05:00 7.8 7.6 99   10 4 15.0 98.96      
06:00 11.0 10.0 94   11 6 15.0 99.06      
07:00 13.8 10.9 83     0 24.1 99.12     Clear
08:00 17.3 12.8 75     0 24.1 99.15     Clear
09:00 18.8 11.0 60   20 4 24.1 99.19     Clear
10:00 19.9 10.6 55     0 24.1 99.23     Clear
11:00 21.1 11.3 54   24 4 24.1 99.22     Clear
12:00 22.3 12.0 52   14 4 24.1 99.17 25   Clear
13:00 22.6 11.5 49   29 9 24.1 99.15 25   Clear
14:00 23.7 11.1 45   26 6 24.1 99.14 26   Mainly Clear
15:00 23.5 11.8 48   36 7 24.1 99.12 26   Mainly Clear
16:00 23.5 9.9 42   18 6 24.1 99.08 25   Mainly Clear
17:00 23.0 10.9 46   34 6 15.0 99.06 25    
18:00 22.1 12.5 54   2 4 15.0 99.06 25    
19:00 17.5 13.5 77   9 4 15.0 99.10      
20:00 14.3 11.8 85   4 4 15.0 99.16      
21:00 15.0 13.2 89   7 9 15.0 99.21      
22:00 14.6 12.8 89   9 9 15.0 99.19      
23:00 14.1 12.5 90   9 9 15.0 99.17      

Notes on Data Quality.

Legend

  • E = Estimated
  • M = Missing
  • NA = Not Available*
  • [empty] = Indicates an unobserved value
Date modified: